Jackson, TN

6:16 AM CDT on August 24, 2016 (GMT -0500)
McKellar-Sipes Regional

Weather History for KMKL - October, 2012

Change the Weather History Date:

Sunday, October 21, 2012

  Actual Average Record
Temperature  
Mean Temperature 62 °F 59 °F  
Max Temperature 80 °F 72 °F 89 °F (1953)
Min Temperature 43 °F 46 °F 28 °F (1952)
Degree Days  
Heating Degree Days 3 7  
Month to date heating degree days 143 102  
Since 1 July heating degree days 173 128  
Cooling Degree Days 0 1  
Month to date cooling degree days 13 39  
Year to date cooling degree days 1913 1682  
Growing Degree Days 12 (Base 50)    
Moisture  
Dew Point 48 °F    
Average Humidity 64    
Maximum Humidity 93    
Minimum Humidity 35    
Precipitation  
Precipitation 0.00 in 0.12 in 1.49 in (1949)
Month to date precipitation 4.00 2.53  
Year to date precipitation 35.10 41.78  
Snow  
Snow 0.00 in 0.00 in 0.00 in (2002)
Month to date snowfall 0.0 0.0  
Since 1 July snowfall 0.0 0.0  
Since 1 September snowfall 0.0 0.0  
Snow Depth 0.00 in    
Sea Level Pressure  
Sea Level Pressure 30.03 in    
Wind  
Wind Speed 6 mph (South)    
Max Wind Speed 15 mph    
Max Gust Speed 18 mph    
Visibility 10 miles    
Events      
T = Trace of Precipitation, MM = Missing Value Source: NWS Daily Summary

Daily Weather History Graph

Daily Weather History Graph

Search for Another Location

Airport or City:

Trip Planner

Search our weather history database for the weather conditions in past years. The results will help you decide how hot, cold, wet, or windy it might be!

Date:

Astronomy

Oct. 21, 2012 Rise Set
Actual Time 7:07 AM CDT 6:12 PM CDT
Civil Twilight 6:41 AM CDT 6:37 PM CDT
Nautical Twilight 6:12 AM CDT 7:07 PM CDT
Astronomical Twilight 5:42 AM CDT 7:37 PM CDT
Moon 1:24 PM CDT (10/21) No Moon Set
Length of Visible Light 11h 56m
Length of Day
11h 04m
Waxing Crescent, 45% of the Moon is Illuminated
Oct 21
Waxing Crescent
Oct 21
First Quarter
Oct 29
Full
Nov 6
Last Quarter
Nov 13
New

Hourly Weather History & Observations

Time (CDT) Temp. Windchill Dew Point Humidity Pressure Visibility Wind Dir Wind Speed Gust Speed Precip Events Conditions
12:53 AM 45.0 °F - 43.0 °F 93% 29.97 in 10.0 mi Calm Calm - N/A   Clear
1:53 AM 46.0 °F - 44.1 °F 93% 29.99 in 10.0 mi Calm Calm - N/A   Clear
2:53 AM 45.0 °F - 43.0 °F 93% 29.99 in 10.0 mi Calm Calm - N/A   Clear
3:53 AM 44.1 °F - 43.0 °F 96% 29.99 in 10.0 mi Calm Calm - N/A   Clear
4:53 AM 45.0 °F 43.5 °F 43.0 °F 93% 30.01 in 10.0 mi East 3.5 mph - N/A   Clear
5:53 AM 44.1 °F - 42.1 °F 93% 30.03 in 10.0 mi Calm Calm - N/A   Clear
6:53 AM 45.0 °F - 43.0 °F 93% 30.04 in 10.0 mi Calm Calm - N/A   Clear
7:53 AM 48.0 °F - 45.0 °F 89% 30.05 in 10.0 mi Calm Calm - N/A   Clear
8:53 AM 59.0 °F - 48.9 °F 69% 30.07 in 10.0 mi SSE 4.6 mph - N/A   Clear
9:53 AM 64.0 °F - 48.9 °F 58% 30.07 in 10.0 mi South 6.9 mph - N/A   Clear
10:53 AM 71.1 °F - 48.9 °F 45% 30.07 in 10.0 mi South 9.2 mph - N/A   Clear
11:53 AM 73.9 °F - 48.9 °F 41% 30.06 in 10.0 mi SSW 12.7 mph 17.3 mph N/A   Clear
12:53 PM 77.0 °F - 50.0 °F 39% 30.04 in 10.0 mi SSW 13.8 mph 18.4 mph N/A   Partly Cloudy
1:53 PM 78.1 °F - 50.0 °F 37% 30.02 in 10.0 mi SSW 11.5 mph - N/A   Overcast
2:53 PM 80.1 °F - 50.0 °F 35% 30.01 in 10.0 mi South 15.0 mph 18.4 mph N/A   Mostly Cloudy
3:53 PM 79.0 °F - 48.9 °F 35% 30.01 in 10.0 mi SSW 10.4 mph - N/A   Scattered Clouds
4:53 PM 75.9 °F - 50.0 °F 40% 30.01 in 10.0 mi SSE 4.6 mph - N/A   Overcast
5:53 PM 73.9 °F - 51.1 °F 45% 30.02 in 10.0 mi SSE 4.6 mph - N/A   Mostly Cloudy
6:53 PM 71.1 °F - 51.1 °F 49% 30.03 in 10.0 mi South 3.5 mph - N/A   Partly Cloudy
7:53 PM 69.1 °F - 50.0 °F 51% 30.04 in 10.0 mi South 6.9 mph - N/A   Clear
8:53 PM 66.9 °F - 50.0 °F 54% 30.04 in 10.0 mi South 4.6 mph - N/A   Clear
9:53 PM 66.9 °F - 52.0 °F 59% 30.04 in 10.0 mi South 6.9 mph - N/A   Clear
10:53 PM 68.0 °F - 52.0 °F 56% 30.04 in 10.0 mi South 5.8 mph - N/A   Clear
11:53 PM 66.9 °F - 52.0 °F 59% 30.04 in 10.0 mi South 8.1 mph - N/A   Clear